Location: Gro�sch�nbrunn
(49.5760°N, 11.8868°E)
Time: 09:49:33
(UTC+00:00)

N. Korean satellite - Pass Details

Date: 27 November 2020
Orbit: 453 x 502 km, 97.2° (Epoch: 16 January)

Event Time Altitude Azimuth Distance (km) Brightness Sun altitude
Rises 05:53:24 0° 359° (N) 2,543 10.0 -7.8°
Reaches altitude 10° 05:55:51 10° 342° (NNW) 1,668 8.9 -7.5°
Maximum altitude 05:58:28 19° 295° (WNW) 1,198 7.9 -7.1°
Drops below altitude 10° 06:01:07 10° 248° (WSW) 1,679 8.9 -6.7°
Sets 06:03:35 0° 231° (SW) 2,564 10.0 -6.3°
